Darstellungsparameter: Aktuell verwendete Einstellungen:
Skalierung der Graphiken ... ?
xyx+y,   Skalierungsfaktor:      Skalierung: Modus: x, Faktor: 1
Darstellungszeitraum ... ?
Vom - - bis: - -   Zeitraum: 07.06.2011 - 11.06.2011
Min/Max/Avg-Anzeige ... ?
Zeige MMA aktuell
Zeige MMA Monat
Zeige MMA alles
Zeige --A aktuell
Zeige --A Monat
Zeige --A alles
Keine MMA-Anzeige
MMA:
Keine MMA-Graphiken
MMA-Basis: 07.06.2011 - 11.06.2011
Quicknavigation für Darstellung... ?
Tage:      1T, 2T, 3T, 5T -1T -2T -3T -5T +1T +2T +3T +5T
Wochen: 1W, 2W, 3W -1W -2W -3W +1W +2W +3W
Monate: 1M, 3M, 6M -1M -3M -6M +1M +3M +6M
Jahre:    1J, 3J, 5J, 10J -1J -3J -5J -10J +1J +3J +5J +10J
Nutze für die Darstellung ... ?
Originaldaten oder Mittelwerte auf ...
Stundenbasis Tagesbasis Wochenbasis
Monatsbasis Jahresbasis      Datenbasis: Original-Daten
Darstellen als:
Statistik (Auto) Statistik J:M      Darstellung:
Zur Graphik,    zurück zur Übersicht aller Sensoren.
 
Tabellarische Datenbersicht: ?
 
Sensor: Nr:Datum:Temp:Abs-Feuchte:Windchill:Wind:
Aussen-T/F 1 07-06-2011 00:07:03 15 C 11.41 g/m*3 15 C 0 km/h
2 07-06-2011 00:19:03 15.2 C 11.55 g/m*3 15.2 C 0 km/h
3 07-06-2011 00:31:03 15.2 C 11.55 g/m*3 15.2 C 0 km/h
4 07-06-2011 00:43:03 15.1 C 11.48 g/m*3 15.1 C 0 km/h
5 07-06-2011 00:55:03 15.2 C 11.55 g/m*3 15.2 C 0 km/h
6 07-06-2011 01:07:03 15.3 C 11.75 g/m*3 15.3 C 0 km/h
7 07-06-2011 01:19:03 15.3 C 11.75 g/m*3 15.3 C 0 km/h
8 07-06-2011 01:31:03 15.3 C 11.75 g/m*3 15.3 C 0 km/h
9 07-06-2011 01:43:03 15.5 C 11.9 g/m*3 15.5 C 0 km/h
10 07-06-2011 01:55:03 15.5 C 11.9 g/m*3 15.5 C 0 km/h
11 07-06-2011 02:07:03 15.6 C 11.97 g/m*3 15.6 C 0 km/h
12 07-06-2011 02:19:03 15.7 C 12.04 g/m*3 15.7 C 0 km/h
13 07-06-2011 02:31:03 15.7 C 12.04 g/m*3 15.7 C 0 km/h
14 07-06-2011 02:43:03 15.7 C 12.04 g/m*3 15.7 C 0 km/h
15 07-06-2011 02:55:03 15.5 C 11.9 g/m*3 15.5 C 0 km/h
16 07-06-2011 03:07:04 15.5 C 11.9 g/m*3 15.5 C 0 km/h
17 07-06-2011 03:19:04 15.4 C 11.82 g/m*3 15.4 C 0 km/h
18 07-06-2011 03:31:04 15 C 11.54 g/m*3 15 C 0 km/h
19 07-06-2011 03:43:04 14.9 C 11.6 g/m*3 14.9 C 0 km/h
20 07-06-2011 03:55:04 14.8 C 11.53 g/m*3 14.8 C 0 km/h
21 07-06-2011 04:07:04 15 C 11.54 g/m*3 15 C 0 km/h
22 07-06-2011 04:19:04 15.1 C 11.61 g/m*3 15.1 C 0 km/h
23 07-06-2011 04:31:04 15.2 C 11.68 g/m*3 15.2 C 0 km/h
24 07-06-2011 04:43:04 15.2 C 11.68 g/m*3 15.2 C 0 km/h
25 07-06-2011 04:55:04 15.1 C 11.61 g/m*3 15.1 C 0 km/h
Sensor: Nr:Datum:Temp:Abs-Feuchte:Windchill:Wind:
Aussen-T/F 26 07-06-2011 05:07:04 15 C 11.54 g/m*3 15 C 0 km/h
27 07-06-2011 05:19:04 15 C 11.54 g/m*3 15 C 0 km/h
28 07-06-2011 05:31:04 15 C 11.54 g/m*3 15 C 0 km/h
29 07-06-2011 05:43:04 15 C 11.54 g/m*3 15 C 0 km/h
30 07-06-2011 05:55:04 15 C 11.54 g/m*3 15 C 0 km/h
31 07-06-2011 06:07:04 14.7 C 11.33 g/m*3 14.7 C 0 km/h
32 07-06-2011 06:19:04 14.8 C 11.4 g/m*3 14.8 C 0 km/h
33 07-06-2011 06:31:04 14.8 C 11.4 g/m*3 14.8 C 0 km/h
34 07-06-2011 06:43:04 14.9 C 11.47 g/m*3 14.9 C 0 km/h
35 07-06-2011 06:55:04 15.2 C 11.42 g/m*3 15.2 C 0 km/h
36 07-06-2011 07:07:02 15.4 C 11.04 g/m*3 15.4 C 0 km/h
37 07-06-2011 07:19:02 15.7 C 10.84 g/m*3 15.7 C 0 km/h
38 07-06-2011 07:31:02 16 C 10.9 g/m*3 16 C 0 km/h
39 07-06-2011 07:43:02 16.2 C 10.76 g/m*3 16.2 C 0 km/h
40 07-06-2011 07:55:02 16.6 C 10.03 g/m*3 16.6 C 0 km/h
41 07-06-2011 08:07:02 16.9 C 9.92 g/m*3 16.9 C 0 km/h
42 07-06-2011 08:19:01 17.2 C 9.67 g/m*3 17.2 C 0 km/h
43 07-06-2011 08:31:02 17.8 C 9.87 g/m*3 17.8 C 0 km/h
44 07-06-2011 08:43:02 17.9 C 9.47 g/m*3 17.9 C 0 km/h
45 07-06-2011 08:55:02 18.2 C 8.86 g/m*3 18.2 C 0 km/h
46 07-06-2011 09:07:02 18.4 C 8.81 g/m*3 18.4 C 0 km/h
47 07-06-2011 09:19:01 18.5 C 8.54 g/m*3 18.5 C 0 km/h
48 07-06-2011 09:31:02 18.1 C 8.5 g/m*3 18.1 C 0 km/h
49 07-06-2011 09:43:02 18.4 C 8.81 g/m*3 18.4 C 0 km/h
50 07-06-2011 09:55:02 18.9 C 8.59 g/m*3 18.9 C 0 km/h
Sensor: Nr:Datum:Temp:Abs-Feuchte:Windchill:Wind:
Aussen-T/F 51 07-06-2011 10:07:02 18.8 C 8.21 g/m*3 18.8 C 0 km/h
52 07-06-2011 10:19:02 19.2 C 8.24 g/m*3 19.2 C 0 km/h
53 07-06-2011 10:31:02 19.1 C 8.03 g/m*3 19.1 C 0 km/h
54 07-06-2011 10:43:02 19.5 C 9.06 g/m*3 19.5 C 0 km/h
55 07-06-2011 10:55:02 19.1 C 8.85 g/m*3 19.1 C 0 km/h
56 07-06-2011 11:07:02 19.1 C 8.2 g/m*3 19.1 C 0 km/h
57 07-06-2011 11:19:02 19.2 C 8.41 g/m*3 19.2 C 0 km/h
58 07-06-2011 11:31:02 19.3 C 8.46 g/m*3 19.3 C 0 km/h
59 07-06-2011 11:43:02 19.5 C 8.39 g/m*3 19.5 C 0 km/h
60 07-06-2011 11:55:02 19.7 C 8.66 g/m*3 19.7 C 0 km/h
61 07-06-2011 12:07:02 20.8 C 8.69 g/m*3 20.8 C 0 km/h
62 07-06-2011 12:19:02 21.1 C 8.66 g/m*3 21.1 C 0 km/h
63 07-06-2011 12:31:02 21.1 C 8.48 g/m*3 21.1 C 0 km/h
64 07-06-2011 12:43:02 20.9 C 8.74 g/m*3 20.9 C 0 km/h
65 07-06-2011 12:55:02 21.2 C 8.52 g/m*3 21.2 C 0 km/h
66 07-06-2011 13:07:01 21.9 C 8.68 g/m*3 21.9 C 0 km/h
67 07-06-2011 13:19:02 22.3 C 8.89 g/m*3 22.3 C 0 km/h
68 07-06-2011 13:31:01 25.7 C 8.38 g/m*3 25.7 C 0 km/h
69 07-06-2011 13:43:01 29.1 C 8.66 g/m*3 29.1 C 0 km/h
70 07-06-2011 13:55:02 30.5 C 8.1 g/m*3 30.5 C 0 km/h
71 07-06-2011 14:07:01 30.3 C 8.32 g/m*3 30.3 C 0 km/h
72 07-06-2011 14:19:01 30.3 C 8.01 g/m*3 30.3 C 0 km/h
73 07-06-2011 14:31:02 28.9 C 7.71 g/m*3 28.9 C 0 km/h
74 07-06-2011 14:43:02 29 C 8.04 g/m*3 29 C 0 km/h
75 07-06-2011 14:55:02 27.1 C 8.02 g/m*3 27.1 C 0 km/h
Sensor: Nr:Datum:Temp:Abs-Feuchte:Windchill:Wind:
Aussen-T/F 76 07-06-2011 15:07:02 30.3 C 8.32 g/m*3 30.3 C 0 km/h
77 07-06-2011 15:19:02 29.5 C 8.26 g/m*3 29.5 C 0 km/h
78 07-06-2011 15:31:02 30 C 8.49 g/m*3 30 C 0 km/h
79 07-06-2011 15:43:02 30.5 C 8.1 g/m*3 30.5 C 0 km/h
80 07-06-2011 15:55:02 28.6 C 7.59 g/m*3 28.6 C 0 km/h
81 07-06-2011 16:07:02 30 C 7.88 g/m*3 30 C 0 km/h
82 07-06-2011 16:19:02 31.8 C 7.01 g/m*3 31.8 C 0 km/h
83 07-06-2011 16:31:02 30.1 C 7.62 g/m*3 30.1 C 0 km/h
84 07-06-2011 16:43:02 31.7 C 6.98 g/m*3 31.7 C 0 km/h
85 07-06-2011 16:55:02 32.1 C 6.79 g/m*3 32.1 C 0 km/h
86 07-06-2011 17:07:02 31.5 C 7.23 g/m*3 31.5 C 0 km/h
87 07-06-2011 17:19:03 29.9 C 8.14 g/m*3 29.9 C 0 km/h
88 07-06-2011 17:31:02 30.6 C 7.83 g/m*3 30.6 C 0 km/h
89 07-06-2011 17:43:02 29.3 C 8.17 g/m*3 29.3 C 0 km/h
90 07-06-2011 17:55:02 27.1 C 11.13 g/m*3 27.1 C 0 km/h
91 07-06-2011 18:07:01 24.3 C 11.29 g/m*3 24.3 C 0 km/h
92 07-06-2011 18:19:02 25.2 C 11.64 g/m*3 25.2 C 0 km/h
93 07-06-2011 18:31:01 29.7 C 8.95 g/m*3 29.7 C 0 km/h
94 07-06-2011 18:43:01 29.5 C 8.85 g/m*3 29.5 C 0 km/h
95 07-06-2011 18:55:02 28.3 C 9.4 g/m*3 28.3 C 0 km/h
96 07-06-2011 19:07:01 27.3 C 11.25 g/m*3 27.3 C 0 km/h
97 07-06-2011 19:19:01 27.7 C 11.77 g/m*3 27.7 C 0 km/h
98 07-06-2011 19:31:02 26.5 C 11.77 g/m*3 26.5 C 0 km/h
99 07-06-2011 19:43:02 24.5 C 11.41 g/m*3 24.5 C 0 km/h
100 07-06-2011 19:55:02 23.1 C 11.58 g/m*3 23.1 C 0 km/h
Sensor: Nr:Datum:Temp:Abs-Feuchte:Windchill:Wind:
Aussen-T/F 101 07-06-2011 20:07:02 22.1 C 11.71 g/m*3 22.1 C 0 km/h
102 07-06-2011 20:19:02 21.9 C 11.96 g/m*3 21.9 C 0 km/h
103 07-06-2011 20:31:02 21.2 C 11.49 g/m*3 21.2 C 0 km/h
104 07-06-2011 20:43:02 20.5 C 11.39 g/m*3 20.5 C 0 km/h
105 07-06-2011 20:55:02 20 C 11.06 g/m*3 20 C 0 km/h
106 07-06-2011 21:07:03 19.7 C 11.21 g/m*3 19.7 C 0 km/h
107 07-06-2011 21:19:02 19.6 C 10.97 g/m*3 19.6 C 0 km/h
108 07-06-2011 21:31:04 19.4 C 11.35 g/m*3 19.4 C 0 km/h
109 07-06-2011 21:43:04 19.1 C 11.15 g/m*3 19.1 C 0 km/h
110 07-06-2011 21:55:02 19 C 11.41 g/m*3 19 C 0 km/h
111 07-06-2011 22:07:02 18.5 C 11.39 g/m*3 18.5 C 0 km/h
112 07-06-2011 22:19:02 18.9 C 11.5 g/m*3 18.9 C 0 km/h
113 07-06-2011 22:32:01 19.7 C 11.21 g/m*3 19.7 C 0 km/h
114 07-06-2011 22:44:01 19.5 C 10.91 g/m*3 19.5 C 0 km/h
115 07-06-2011 22:56:01 19 C 11.41 g/m*3 19 C 0 km/h
116 07-06-2011 23:08:01 18.6 C 11.78 g/m*3 18.6 C 0 km/h
117 07-06-2011 23:20:01 18.5 C 11.87 g/m*3 18.5 C 0 km/h
118 07-06-2011 23:32:01 19.5 C 10.07 g/m*3 19.5 C 0 km/h
119 07-06-2011 23:44:01 19.1 C 9.51 g/m*3 19.1 C 0 km/h
120 07-06-2011 23:56:02 17.7 C 10.11 g/m*3 17.7 C 0 km/h
121 08-06-2011 00:08:02 16.8 C 11.29 g/m*3 16.8 C 0 km/h
122 08-06-2011 00:20:02 16.4 C 11.31 g/m*3 16.4 C 0 km/h
123 08-06-2011 00:32:02 16.4 C 11.45 g/m*3 16.4 C 0 km/h
124 08-06-2011 00:44:02 16.3 C 11.52 g/m*3 16.3 C 0 km/h
125 08-06-2011 00:56:02 16.2 C 11.58 g/m*3 16.2 C 0 km/h
Sensor: Nr:Datum:Temp:Abs-Feuchte:Windchill:Wind:
Aussen-T/F 126 08-06-2011 01:08:02 16.1 C 11.65 g/m*3 16.1 C 0 km/h
127 08-06-2011 01:20:02 16 C 11.72 g/m*3 16 C 0 km/h
128 08-06-2011 01:32:02 16 C 11.72 g/m*3 16 C 0 km/h
129 08-06-2011 01:44:02 16 C 11.85 g/m*3 16 C 0 km/h
130 08-06-2011 01:56:02 15.9 C 11.92 g/m*3 15.9 C 0 km/h
131 08-06-2011 02:08:02 15.7 C 11.77 g/m*3 15.7 C 0 km/h
132 08-06-2011 02:20:02 15.6 C 11.7 g/m*3 15.6 C 0 km/h
133 08-06-2011 02:32:02 15.5 C 11.63 g/m*3 15.5 C 0 km/h
134 08-06-2011 02:44:02 15.4 C 11.56 g/m*3 15.4 C 0 km/h
135 08-06-2011 02:56:02 15.4 C 11.56 g/m*3 15.4 C 0 km/h
136 08-06-2011 03:08:02 15.3 C 11.49 g/m*3 15.3 C 0 km/h
137 08-06-2011 03:20:02 15.2 C 11.55 g/m*3 15.2 C 0 km/h
138 08-06-2011 03:32:02 15.2 C 11.55 g/m*3 15.2 C 0 km/h
139 08-06-2011 03:44:02 15.2 C 11.55 g/m*3 15.2 C 0 km/h
140 08-06-2011 03:56:03 15.1 C 11.48 g/m*3 15.1 C 0 km/h
141 08-06-2011 04:08:03 15.1 C 11.48 g/m*3 15.1 C 0 km/h
142 08-06-2011 04:20:03 15.2 C 11.55 g/m*3 15.2 C 0 km/h
143 08-06-2011 04:32:03 15.1 C 11.48 g/m*3 15.1 C 0 km/h
144 08-06-2011 04:44:03 15.1 C 11.48 g/m*3 15.1 C 0 km/h
145 08-06-2011 04:56:03 15.1 C 11.48 g/m*3 15.1 C 0 km/h
146 08-06-2011 05:08:03 15 C 11.41 g/m*3 15 C 0 km/h
147 08-06-2011 05:20:03 14.9 C 11.47 g/m*3 14.9 C 0 km/h
148 08-06-2011 05:32:03 15 C 11.41 g/m*3 15 C 0 km/h
149 08-06-2011 05:44:03 15 C 11.41 g/m*3 15 C 0 km/h
150 08-06-2011 05:56:03 15.1 C 11.48 g/m*3 15.1 C 0 km/h
Sensor: Nr:Datum:Temp:Abs-Feuchte:Windchill:Wind:
Aussen-T/F 151 08-06-2011 06:08:03 15 C 11.41 g/m*3 15 C 0 km/h
152 08-06-2011 06:20:03 13.4 C 10.46 g/m*3 13.4 C 0 km/h
153 08-06-2011 06:32:03 12.6 C 9.96 g/m*3 12.6 C 0 km/h
154 08-06-2011 06:44:03 12.5 C 9.78 g/m*3 12.5 C 0 km/h
155 08-06-2011 06:56:03 12.4 C 9.51 g/m*3 12.4 C 0 km/h
156 08-06-2011 07:08:02 12.1 C 9.22 g/m*3 12.1 C 0 km/h
157 08-06-2011 07:20:01 12.1 C 9.12 g/m*3 12.1 C 0 km/h
158 08-06-2011 07:32:02 11.9 C 9.11 g/m*3 11.9 C 0 km/h
159 08-06-2011 07:44:02 11.8 C 9.05 g/m*3 11.8 C 0 km/h
160 08-06-2011 07:56:02 11.4 C 8.62 g/m*3 11.4 C 0 km/h
161 08-06-2011 08:08:02 11.4 C 8.72 g/m*3 11.4 C 0 km/h
162 08-06-2011 08:20:01 11.2 C 8.62 g/m*3 11.2 C 0 km/h
163 08-06-2011 08:32:02 11.5 C 8.88 g/m*3 11.5 C 0 km/h
164 08-06-2011 08:44:02 11.4 C 8.72 g/m*3 11.4 C 0 km/h
165 08-06-2011 08:56:01 11.3 C 8.57 g/m*3 11.3 C 0 km/h
166 08-06-2011 09:08:02 11.7 C 8.89 g/m*3 11.7 C 0 km/h
167 08-06-2011 09:20:02 11.8 C 8.95 g/m*3 11.8 C 0 km/h
168 08-06-2011 09:32:01 11.8 C 8.84 g/m*3 11.8 C 0 km/h
169 08-06-2011 09:44:01 12 C 8.95 g/m*3 12 C 0 km/h
170 08-06-2011 09:56:01 11.7 C 8.79 g/m*3 11.7 C 0 km/h
171 08-06-2011 10:08:01 11.9 C 8.9 g/m*3 11.9 C 0 km/h
172 08-06-2011 10:20:02 12.3 C 8.9 g/m*3 12.3 C 0 km/h
173 08-06-2011 10:32:01 12.4 C 8.85 g/m*3 12.4 C 0 km/h
174 08-06-2011 10:44:01 12.2 C 8.52 g/m*3 12.2 C 0 km/h
175 08-06-2011 10:56:03 12 C 8.1 g/m*3 12 C 0 km/h
Sensor: Nr:Datum:Temp:Abs-Feuchte:Windchill:Wind:
Aussen-T/F 176 08-06-2011 11:08:02 12.1 C 8.15 g/m*3 12.1 C 0 km/h
177 08-06-2011 11:20:02 12.4 C 8.19 g/m*3 12.4 C 0 km/h
178 08-06-2011 11:32:02 13.5 C 9.01 g/m*3 13.5 C 0 km/h
179 08-06-2011 11:44:02 14.1 C 7.89 g/m*3 14.1 C 0 km/h
180 08-06-2011 11:56:02 14.5 C 7.59 g/m*3 14.5 C 0 km/h
181 08-06-2011 12:08:01 15.4 C 7.75 g/m*3 15.4 C 0 km/h
182 08-06-2011 12:20:02 15.9 C 6.77 g/m*3 15.9 C 0 km/h
183 08-06-2011 12:32:02 15.8 C 6.6 g/m*3 15.8 C 0 km/h
184 08-06-2011 12:44:02 16.2 C 6.34 g/m*3 16.2 C 0 km/h
185 08-06-2011 12:56:02 17.3 C 6.48 g/m*3 17.3 C 0 km/h
186 08-06-2011 13:08:02 18 C 6.6 g/m*3 18 C 0 km/h
187 08-06-2011 13:20:02 18.6 C 7 g/m*3 18.6 C 0 km/h
188 08-06-2011 13:32:02 19.9 C 7.04 g/m*3 19.9 C 0 km/h
189 08-06-2011 13:44:02 22 C 6.6 g/m*3 22 C 0 km/h
190 08-06-2011 13:56:01 24.2 C 6.82 g/m*3 24.2 C 0 km/h
191 08-06-2011 14:08:02 20.5 C 6.58 g/m*3 20.5 C 0 km/h
192 08-06-2011 14:20:01 18.9 C 6.97 g/m*3 18.9 C 0 km/h
193 08-06-2011 14:32:01 18.6 C 7.16 g/m*3 18.6 C 0 km/h
194 08-06-2011 14:44:01 22.9 C 7.36 g/m*3 22.9 C 0 km/h
195 08-06-2011 14:56:01 19.6 C 6.75 g/m*3 19.6 C 0 km/h
196 08-06-2011 15:08:01 21.1 C 6.82 g/m*3 21.1 C 0 km/h
197 08-06-2011 15:20:01 22.4 C 6.75 g/m*3 22.4 C 0 km/h
198 08-06-2011 15:32:01 19.9 C 7.04 g/m*3 19.9 C 0 km/h
199 08-06-2011 15:44:01 20.3 C 7.03 g/m*3 20.3 C 0 km/h
200 08-06-2011 15:56:02 20.8 C 7.42 g/m*3 20.8 C 0 km/h
Sensor: Nr:Datum:Temp:Abs-Feuchte:Windchill:Wind:
Aussen-T/F 201 08-06-2011 16:08:02 20.3 C 6.16 g/m*3 20.3 C 0 km/h
202 08-06-2011 16:20:03 19.4 C 5.51 g/m*3 19.4 C 0 km/h
203 08-06-2011 16:32:02 20.4 C 5.66 g/m*3 20.4 C 0 km/h
204 08-06-2011 16:44:02 19.2 C 5.11 g/m*3 19.2 C 0 km/h
205 08-06-2011 16:56:02 20.9 C 5.28 g/m*3 20.9 C 0 km/h
206 08-06-2011 17:08:02 20.6 C 5.55 g/m*3 20.6 C 0 km/h
207 08-06-2011 17:20:02 20.9 C 5.46 g/m*3 20.9 C 0 km/h
208 08-06-2011 17:32:02 19.6 C 5.06 g/m*3 19.6 C 0 km/h
209 08-06-2011 17:44:02 18.9 C 5.67 g/m*3 18.9 C 0 km/h
210 08-06-2011 17:56:02 18.6 C 5.73 g/m*3 18.6 C 0 km/h
211 08-06-2011 18:08:02 19.4 C 5.51 g/m*3 19.4 C 0 km/h
212 08-06-2011 18:20:02 18.6 C 5.73 g/m*3 18.6 C 0 km/h
213 08-06-2011 18:32:02 18.2 C 6.22 g/m*3 18.2 C 0 km/h
214 08-06-2011 18:44:02 17.9 C 6.11 g/m*3 17.9 C 0 km/h
215 08-06-2011 18:56:02 17.6 C 6.3 g/m*3 17.6 C 0 km/h
216 08-06-2011 19:08:01 17.7 C 6.34 g/m*3 17.7 C 0 km/h
217 08-06-2011 19:20:02 17.4 C 6.97 g/m*3 17.4 C 0 km/h
218 08-06-2011 19:32:01 17.3 C 7.66 g/m*3 17.3 C 0 km/h
219 08-06-2011 19:44:01 17.3 C 7.22 g/m*3 17.3 C 0 km/h
220 08-06-2011 19:56:02 16.9 C 6.47 g/m*3 16.9 C 0 km/h
221 08-06-2011 20:08:01 16.3 C 7.08 g/m*3 16.3 C 0 km/h
222 08-06-2011 20:20:01 16.3 C 7.08 g/m*3 16.3 C 0 km/h
223 08-06-2011 20:32:02 16.3 C 7.08 g/m*3 16.3 C 0 km/h
224 08-06-2011 20:44:02 15 C 8.21 g/m*3 15 C 0 km/h
225 08-06-2011 20:56:02 14.9 C 8.16 g/m*3 14.9 C 0 km/h
Sensor: Nr:Datum:Temp:Abs-Feuchte:Windchill:Wind:
Aussen-T/F 226 08-06-2011 21:08:02 14.7 C 8.18 g/m*3 14.7 C 0 km/h
227 08-06-2011 21:20:02 14.4 C 8.03 g/m*3 14.4 C 0 km/h
228 08-06-2011 21:32:02 14.2 C 8.3 g/m*3 14.2 C 0 km/h
229 08-06-2011 21:44:02 14 C 8.32 g/m*3 14 C 0 km/h
230 08-06-2011 21:56:02 13.7 C 8.41 g/m*3 13.7 C 0 km/h
231 08-06-2011 22:08:02 13.6 C 8.47 g/m*3 13.6 C 0 km/h
232 08-06-2011 22:20:02 13.2 C 8.27 g/m*3 13.2 C 0 km/h
233 08-06-2011 22:32:03 13.4 C 8.49 g/m*3 13.4 C 0 km/h
234 08-06-2011 22:44:03 13.2 C 8.15 g/m*3 13.2 C 0 km/h
235 08-06-2011 22:56:03 13.2 C 8.04 g/m*3 13.2 C 0 km/h
236 08-06-2011 23:08:02 13.3 C 7.86 g/m*3 13.3 C 0 km/h
237 08-06-2011 23:21:04 13.4 C 7.79 g/m*3 13.4 C 0 km/h
238 08-06-2011 23:33:04 13.4 C 7.79 g/m*3 13.4 C 0 km/h
239 08-06-2011 23:45:04 13.4 C 7.79 g/m*3 13.4 C 0 km/h
240 08-06-2011 23:57:04 13.4 C 7.79 g/m*3 13.4 C 0 km/h
241 09-06-2011 00:09:04 13.4 C 7.79 g/m*3 13.4 C 0 km/h
242 09-06-2011 00:21:04 13.4 C 7.79 g/m*3 13.4 C 0 km/h
243 09-06-2011 00:33:04 13.4 C 7.79 g/m*3 13.4 C 0 km/h
244 09-06-2011 00:45:04 13.4 C 7.79 g/m*3 13.4 C 0 km/h
245 09-06-2011 00:57:05 13.4 C 7.79 g/m*3 13.4 C 0 km/h
246 09-06-2011 01:09:05 13.4 C 7.79 g/m*3 13.4 C 0 km/h
247 09-06-2011 01:21:05 11.7 C 7.64 g/m*3 11.7 C 0 km/h
248 09-06-2011 01:33:05 11.7 C 7.64 g/m*3 11.7 C 0 km/h
249 09-06-2011 01:45:05 11.7 C 7.64 g/m*3 11.7 C 0 km/h
250 09-06-2011 01:57:05 11.1 C 7.55 g/m*3 11.1 C 0 km/h
Sensor: Nr:Datum:Temp:Abs-Feuchte:Windchill:Wind:
Aussen-T/F 251 09-06-2011 02:09:05 11.1 C 7.55 g/m*3 11.1 C 0 km/h
252 09-06-2011 02:21:05 11.1 C 7.55 g/m*3 11.1 C 0 km/h
253 09-06-2011 02:33:05 11.1 C 7.55 g/m*3 11.1 C 0 km/h
254 09-06-2011 02:45:05 11.1 C 7.55 g/m*3 11.1 C 0 km/h
255 09-06-2011 02:57:05 11.1 C 7.55 g/m*3 11.1 C 0 km/h
256 09-06-2011 03:09:05 11.1 C 7.55 g/m*3 11.1 C 0 km/h
257 09-06-2011 03:21:05 11.1 C 7.55 g/m*3 11.1 C 0 km/h
258 09-06-2011 03:33:05 11.1 C 7.55 g/m*3 11.1 C 0 km/h
259 09-06-2011 03:45:05 11.1 C 7.55 g/m*3 11.1 C 0 km/h
260 09-06-2011 03:57:05 11.1 C 7.55 g/m*3 11.1 C 0 km/h
261 09-06-2011 04:09:05 11.1 C 7.55 g/m*3 11.1 C 0 km/h
262 09-06-2011 04:21:05 11.1 C 7.55 g/m*3 11.1 C 0 km/h
263 09-06-2011 04:33:05 11.1 C 7.55 g/m*3 11.1 C 0 km/h
264 09-06-2011 04:45:05 11.1 C 7.55 g/m*3 11.1 C 0 km/h
265 09-06-2011 04:57:06 11.1 C 7.55 g/m*3 11.1 C 0 km/h
266 09-06-2011 05:09:06 11.1 C 7.55 g/m*3 11.1 C 0 km/h
267 09-06-2011 05:21:06 11.1 C 7.55 g/m*3 11.1 C 0 km/h
268 09-06-2011 05:33:06 11.1 C 7.55 g/m*3 11.1 C 0 km/h
269 09-06-2011 05:45:06 11.1 C 7.55 g/m*3 11.1 C 0 km/h
270 09-06-2011 05:57:06 11.1 C 7.55 g/m*3 11.1 C 0 km/h
271 09-06-2011 06:09:06 11.1 C 7.55 g/m*3 11.1 C 0 km/h
272 09-06-2011 06:21:06 8.8 C 7.66 g/m*3 8.8 C 0 km/h
273 09-06-2011 06:33:06 8.7 C 7.61 g/m*3 8.7 C 0 km/h
274 09-06-2011 06:45:02 8.6 C 7.56 g/m*3 8.6 C 0 km/h
275 09-06-2011 06:57:02 8.8 C 7.66 g/m*3 8.8 C 0 km/h
Sensor: Nr:Datum:Temp:Abs-Feuchte:Windchill:Wind:
Aussen-T/F 276 09-06-2011 07:09:02 9.3 C 7.91 g/m*3 9.3 C 0 km/h
277 09-06-2011 07:21:02 9.5 C 8.01 g/m*3 9.5 C 0 km/h
278 09-06-2011 07:33:02 9.7 C 8.11 g/m*3 9.7 C 0 km/h
279 09-06-2011 07:45:02 9.7 C 8.11 g/m*3 9.7 C 0 km/h
280 09-06-2011 07:57:02 9.7 C 8.11 g/m*3 9.7 C 0 km/h
281 09-06-2011 08:09:01 9.7 C 8.11 g/m*3 9.7 C 0 km/h
282 09-06-2011 08:21:02 9.7 C 8.11 g/m*3 9.7 C 0 km/h
283 09-06-2011 08:33:02 9.7 C 8.11 g/m*3 9.7 C 0 km/h
284 09-06-2011 08:45:02 9.7 C 8.11 g/m*3 9.7 C 0 km/h
285 09-06-2011 08:57:02 9.7 C 8.11 g/m*3 9.7 C 0 km/h
286 09-06-2011 09:09:03 9.7 C 8.11 g/m*3 9.7 C 0 km/h
287 09-06-2011 09:21:02 9.7 C 8.11 g/m*3 9.7 C 0 km/h
288 09-06-2011 09:33:03 9.7 C 8.11 g/m*3 9.7 C 0 km/h
289 09-06-2011 09:45:02 9.7 C 8.11 g/m*3 9.7 C 0 km/h
290 09-06-2011 09:57:03 9.7 C 8.11 g/m*3 9.7 C 0 km/h
291 09-06-2011 10:09:01 9.7 C 8.11 g/m*3 9.7 C 0 km/h
292 09-06-2011 10:21:02 9.7 C 8.11 g/m*3 9.7 C 0 km/h
293 09-06-2011 10:33:02 9.7 C 8.11 g/m*3 9.7 C 0 km/h
294 09-06-2011 10:58:02 9.7 C 8.11 g/m*3 9.7 C 0 km/h
295 09-06-2011 11:10:03 9.7 C 8.11 g/m*3 9.7 C 0 km/h
296 09-06-2011 11:22:02 9.7 C 8.11 g/m*3 9.7 C 0 km/h
297 09-06-2011 11:34:02 9.7 C 8.11 g/m*3 9.7 C 0 km/h
298 09-06-2011 11:46:02 9.7 C 8.11 g/m*3 9.7 C 0 km/h
299 09-06-2011 11:58:02 18.6 C 6.37 g/m*3 18.6 C 0 km/h
300 09-06-2011 12:10:03 18.8 C 6.76 g/m*3 18.8 C 0 km/h
Sensor: Nr:Datum:Temp:Abs-Feuchte:Windchill:Wind:
Aussen-T/F 301 09-06-2011 12:22:03 18.3 C 6.1 g/m*3 18.3 C 0 km/h
302 09-06-2011 12:34:02 18.1 C 8.03 g/m*3 18.1 C 0 km/h
303 09-06-2011 12:46:02 20 C 6.91 g/m*3 20 C 0 km/h
304 09-06-2011 12:58:03 20.9 C 6.56 g/m*3 20.9 C 0 km/h
305 09-06-2011 13:10:01 20.9 C 6.19 g/m*3 20.9 C 0 km/h
306 09-06-2011 13:22:02 20.1 C 6.78 g/m*3 20.1 C 0 km/h
307 09-06-2011 13:34:02 20.1 C 6.61 g/m*3 20.1 C 0 km/h
308 09-06-2011 13:46:02 18.8 C 6.76 g/m*3 18.8 C 0 km/h
309 09-06-2011 13:58:02 17.1 C 7.57 g/m*3 17.1 C 0 km/h
310 09-06-2011 14:10:03 16.7 C 6.54 g/m*3 16.7 C 0 km/h
311 09-06-2011 14:22:02 16.2 C 7.58 g/m*3 16.2 C 0 km/h
312 09-06-2011 14:34:02 15.6 C 7.98 g/m*3 15.6 C 0 km/h
313 09-06-2011 14:46:01 15.5 C 8.06 g/m*3 15.5 C 0 km/h
314 09-06-2011 14:58:01 15.7 C 8.16 g/m*3 15.7 C 0 km/h
315 09-06-2011 15:10:02 16.2 C 8.14 g/m*3 16.2 C 0 km/h
316 09-06-2011 15:22:01 17 C 8.68 g/m*3 17 C 0 km/h
317 09-06-2011 15:34:01 17.3 C 8.25 g/m*3 17.3 C 0 km/h
318 09-06-2011 15:46:01 17.9 C 8.24 g/m*3 17.9 C 0 km/h
319 09-06-2011 15:58:01 18.2 C 8.39 g/m*3 18.2 C 0 km/h
320 09-06-2011 16:10:02 17.6 C 8.7 g/m*3 17.6 C 0 km/h
321 09-06-2011 16:22:01 17.2 C 8.35 g/m*3 17.2 C 0 km/h
322 09-06-2011 16:34:01 17.1 C 8.44 g/m*3 17.1 C 0 km/h
323 09-06-2011 16:46:01 16.8 C 9.01 g/m*3 16.8 C 0 km/h
324 09-06-2011 16:58:01 16.6 C 9.18 g/m*3 16.6 C 0 km/h
325 09-06-2011 17:10:01 16.5 C 8.99 g/m*3 16.5 C 0 km/h
Sensor: Nr:Datum:Temp:Abs-Feuchte:Windchill:Wind:
Aussen-T/F 326 09-06-2011 17:22:02 16.8 C 9.01 g/m*3 16.8 C 0 km/h
327 09-06-2011 17:34:01 16.8 C 9.01 g/m*3 16.8 C 0 km/h
328 09-06-2011 17:46:02 17.2 C 8.93 g/m*3 17.2 C 0 km/h
329 09-06-2011 17:58:02 17.8 C 8.8 g/m*3 17.8 C 0 km/h
330 09-06-2011 18:10:02 20.4 C 7.78 g/m*3 20.4 C 0 km/h
331 09-06-2011 18:22:02 21.3 C 6.9 g/m*3 21.3 C 0 km/h
332 09-06-2011 18:34:02 23.3 C 6.69 g/m*3 23.3 C 0 km/h
333 09-06-2011 18:46:02 22.2 C 5.5 g/m*3 22.2 C 0 km/h
334 09-06-2011 18:58:02 22.5 C 6.19 g/m*3 22.5 C 0 km/h
335 09-06-2011 19:10:01 22.3 C 7.5 g/m*3 22.3 C 0 km/h
336 09-06-2011 19:22:02 22.3 C 7.5 g/m*3 22.3 C 0 km/h
337 09-06-2011 19:34:02 22.3 C 7.5 g/m*3 22.3 C 0 km/h
338 09-06-2011 19:46:02 22.3 C 7.5 g/m*3 22.3 C 0 km/h
339 09-06-2011 19:58:02 22.3 C 7.5 g/m*3 22.3 C 0 km/h
340 09-06-2011 20:10:02 22.3 C 7.5 g/m*3 22.3 C 0 km/h
341 09-06-2011 20:22:02 22.3 C 7.5 g/m*3 22.3 C 0 km/h
342 09-06-2011 20:34:02 22.3 C 7.5 g/m*3 22.3 C 0 km/h
343 09-06-2011 20:46:02 22.3 C 7.5 g/m*3 22.3 C 0 km/h
344 09-06-2011 20:58:02 22.3 C 7.5 g/m*3 22.3 C 0 km/h
345 09-06-2011 21:10:02 13 C 9.3 g/m*3 13 C 0 km/h
346 09-06-2011 21:22:01 12.9 C 9.47 g/m*3 12.9 C 0 km/h
347 09-06-2011 21:34:02 12.9 C 9.58 g/m*3 12.9 C 0 km/h
348 09-06-2011 21:46:02 12.5 C 9.46 g/m*3 12.5 C 0 km/h
349 09-06-2011 21:58:02 12.4 C 9.4 g/m*3 12.4 C 0 km/h
350 09-06-2011 22:10:02 12.4 C 9.4 g/m*3 12.4 C 0 km/h
Sensor: Nr:Datum:Temp:Abs-Feuchte:Windchill:Wind:
Aussen-T/F 351 09-06-2011 22:22:01 11.5 C 8.99 g/m*3 11.5 C 0 km/h
352 09-06-2011 22:35:03 11.5 C 8.99 g/m*3 11.5 C 0 km/h
353 09-06-2011 22:47:03 11.4 C 8.93 g/m*3 11.4 C 0 km/h
354 09-06-2011 22:59:03 11.4 C 8.93 g/m*3 11.4 C 0 km/h
355 09-06-2011 23:11:03 11.4 C 8.93 g/m*3 11.4 C 0 km/h
356 09-06-2011 23:23:03 11.4 C 8.93 g/m*3 11.4 C 0 km/h
357 09-06-2011 23:35:03 11.4 C 8.93 g/m*3 11.4 C 0 km/h
358 09-06-2011 23:47:03 11.4 C 8.93 g/m*3 11.4 C 0 km/h
359 09-06-2011 23:59:03 11.4 C 8.93 g/m*3 11.4 C 0 km/h
360 10-06-2011 00:11:03 11.4 C 8.93 g/m*3 11.4 C 0 km/h
361 10-06-2011 00:23:03 11.4 C 8.93 g/m*3 11.4 C 0 km/h
362 10-06-2011 00:35:03 11.4 C 8.93 g/m*3 11.4 C 0 km/h
363 10-06-2011 00:47:04 11.4 C 8.93 g/m*3 11.4 C 0 km/h
364 10-06-2011 00:59:04 11.4 C 8.93 g/m*3 11.4 C 0 km/h
365 10-06-2011 01:11:04 11.4 C 8.93 g/m*3 11.4 C 0 km/h
366 10-06-2011 01:23:04 11.4 C 8.93 g/m*3 11.4 C 0 km/h
367 10-06-2011 01:35:04 11.4 C 8.93 g/m*3 11.4 C 0 km/h
368 10-06-2011 01:47:04 11.4 C 8.93 g/m*3 11.4 C 0 km/h
369 10-06-2011 01:59:04 11.4 C 8.93 g/m*3 11.4 C 0 km/h
370 10-06-2011 02:11:04 11.4 C 8.93 g/m*3 11.4 C 0 km/h
371 10-06-2011 02:23:04 11.4 C 8.93 g/m*3 11.4 C 0 km/h
372 10-06-2011 02:35:04 11.4 C 8.93 g/m*3 11.4 C 0 km/h
373 10-06-2011 02:47:04 11.4 C 8.93 g/m*3 11.4 C 0 km/h
374 10-06-2011 02:59:04 11.4 C 8.93 g/m*3 11.4 C 0 km/h
375 10-06-2011 03:11:04 11.4 C 8.93 g/m*3 11.4 C 0 km/h
Sensor: Nr:Datum:Temp:Abs-Feuchte:Windchill:Wind:
Aussen-T/F 376 10-06-2011 03:23:04 11.4 C 8.93 g/m*3 11.4 C 0 km/h
377 10-06-2011 03:35:04 11.4 C 8.93 g/m*3 11.4 C 0 km/h
378 10-06-2011 03:47:04 11.4 C 8.93 g/m*3 11.4 C 0 km/h
379 10-06-2011 03:59:04 11.4 C 8.93 g/m*3 11.4 C 0 km/h
380 10-06-2011 04:11:04 11.4 C 8.93 g/m*3 11.4 C 0 km/h
381 10-06-2011 04:23:04 11.4 C 8.93 g/m*3 11.4 C 0 km/h
382 10-06-2011 04:35:04 11.4 C 8.93 g/m*3 11.4 C 0 km/h
383 10-06-2011 04:47:04 11.4 C 8.93 g/m*3 11.4 C 0 km/h
384 10-06-2011 04:59:05 11.4 C 8.93 g/m*3 11.4 C 0 km/h
385 10-06-2011 05:11:05 11.4 C 8.93 g/m*3 11.4 C 0 km/h
386 10-06-2011 05:23:05 11.4 C 8.93 g/m*3 11.4 C 0 km/h
387 10-06-2011 05:35:05 11.4 C 8.93 g/m*3 11.4 C 0 km/h
388 10-06-2011 05:47:05 11.4 C 8.93 g/m*3 11.4 C 0 km/h
389 10-06-2011 05:59:05 11.4 C 8.93 g/m*3 11.4 C 0 km/h
390 10-06-2011 06:11:05 11.4 C 8.93 g/m*3 11.4 C 0 km/h
391 10-06-2011 06:23:05 11.4 C 8.93 g/m*3 11.4 C 0 km/h
392 10-06-2011 06:35:03 11.5 C 9.09 g/m*3 11.5 C 0 km/h
393 10-06-2011 06:47:02 11.8 C 9.26 g/m*3 11.8 C 0 km/h
394 10-06-2011 06:59:02 12 C 9.27 g/m*3 12 C 0 km/h
395 10-06-2011 07:11:03 12.1 C 9.33 g/m*3 12.1 C 0 km/h
396 10-06-2011 07:23:02 12.5 C 9.46 g/m*3 12.5 C 0 km/h
397 10-06-2011 07:35:02 12.5 C 9.46 g/m*3 12.5 C 0 km/h
398 10-06-2011 07:47:01 13 C 9.07 g/m*3 13 C 0 km/h
399 10-06-2011 07:59:01 13 C 9.07 g/m*3 13 C 0 km/h
400 10-06-2011 08:11:02 13 C 9.07 g/m*3 13 C 0 km/h
Sensor: Nr:Datum:Temp:Abs-Feuchte:Windchill:Wind:
Aussen-T/F 401 10-06-2011 08:23:01 13 C 9.07 g/m*3 13 C 0 km/h
402 10-06-2011 08:35:02 13 C 9.07 g/m*3 13 C 0 km/h
403 10-06-2011 08:47:02 13 C 9.07 g/m*3 13 C 0 km/h
404 10-06-2011 08:59:02 13 C 9.07 g/m*3 13 C 0 km/h
405 10-06-2011 09:11:02 13 C 9.07 g/m*3 13 C 0 km/h
406 10-06-2011 09:23:01 13 C 9.07 g/m*3 13 C 0 km/h
407 10-06-2011 09:35:02 13 C 9.07 g/m*3 13 C 0 km/h
408 10-06-2011 09:47:02 13 C 9.07 g/m*3 13 C 0 km/h
409 10-06-2011 09:59:02 13 C 9.07 g/m*3 13 C 0 km/h
410 10-06-2011 10:11:02 13 C 9.07 g/m*3 13 C 0 km/h
411 10-06-2011 10:23:01 13 C 9.07 g/m*3 13 C 0 km/h
412 10-06-2011 10:35:02 13 C 9.07 g/m*3 13 C 0 km/h
413 10-06-2011 10:47:01 13 C 9.07 g/m*3 13 C 0 km/h
414 10-06-2011 10:59:01 13 C 9.07 g/m*3 13 C 0 km/h
415 10-06-2011 11:11:02 13 C 9.07 g/m*3 13 C 0 km/h
416 10-06-2011 11:23:02 13 C 9.07 g/m*3 13 C 0 km/h
417 10-06-2011 11:35:02 13 C 9.07 g/m*3 13 C 0 km/h
418 10-06-2011 11:47:01 13 C 9.07 g/m*3 13 C 0 km/h
419 10-06-2011 11:59:01 13 C 9.07 g/m*3 13 C 0 km/h
420 10-06-2011 12:11:02 13 C 9.07 g/m*3 13 C 0 km/h
421 10-06-2011 12:23:02 13 C 9.07 g/m*3 13 C 0 km/h
422 10-06-2011 12:35:01 13 C 9.07 g/m*3 13 C 0 km/h
423 10-06-2011 12:47:02 13 C 9.07 g/m*3 13 C 0 km/h
424 10-06-2011 12:59:02 13 C 9.07 g/m*3 13 C 0 km/h
425 10-06-2011 13:11:01 13 C 9.07 g/m*3 13 C 0 km/h
Sensor: Nr:Datum:Temp:Abs-Feuchte:Windchill:Wind:
Aussen-T/F 426 10-06-2011 13:23:02 13 C 9.07 g/m*3 13 C 0 km/h
427 10-06-2011 13:35:01 13 C 9.07 g/m*3 13 C 0 km/h
428 10-06-2011 13:47:02 13 C 9.07 g/m*3 13 C 0 km/h
429 10-06-2011 13:59:02 13 C 9.07 g/m*3 13 C 0 km/h
430 10-06-2011 14:11:01 13 C 9.07 g/m*3 13 C 0 km/h
431 10-06-2011 14:23:01 13 C 9.07 g/m*3 13 C 0 km/h
432 10-06-2011 14:35:01 13 C 9.07 g/m*3 13 C 0 km/h
433 10-06-2011 14:47:02 13 C 9.07 g/m*3 13 C 0 km/h
434 10-06-2011 14:59:02 13 C 9.07 g/m*3 13 C 0 km/h
435 10-06-2011 15:11:02 13 C 9.07 g/m*3 13 C 0 km/h
436 10-06-2011 15:23:02 21.5 C 6.03 g/m*3 21.5 C 0 km/h
437 10-06-2011 15:35:02 21.7 C 5.91 g/m*3 21.7 C 0 km/h
438 10-06-2011 15:47:02 22 C 5.43 g/m*3 22 C 0 km/h
439 10-06-2011 15:59:02 24.1 C 5.69 g/m*3 24.1 C 0 km/h
440 10-06-2011 16:11:02 26.7 C 5.06 g/m*3 26.7 C 0 km/h
441 10-06-2011 16:23:02 27 C 5.15 g/m*3 27 C 0 km/h
442 10-06-2011 16:35:01 24 C 4.35 g/m*3 24 C 0 km/h
443 10-06-2011 16:47:03 27.6 C 5.32 g/m*3 27.6 C 0 km/h
444 10-06-2011 16:59:03 26.3 C 4.95 g/m*3 26.3 C 0 km/h
445 10-06-2011 17:11:03 23.3 C 4.39 g/m*3 23.3 C 0 km/h
446 10-06-2011 17:23:02 22.5 C 4.79 g/m*3 22.5 C 0 km/h
447 10-06-2011 17:35:02 22.5 C 4.79 g/m*3 22.5 C 0 km/h
448 10-06-2011 17:47:02 20.6 C 6.62 g/m*3 20.6 C 0 km/h
449 10-06-2011 17:59:02 19.3 C 7.63 g/m*3 19.3 C 0 km/h
450 10-06-2011 18:11:01 18.8 C 7.57 g/m*3 18.8 C 0 km/h
Sensor: Nr:Datum:Temp:Abs-Feuchte:Windchill:Wind:
Aussen-T/F 451 10-06-2011 18:23:01 18.1 C 6.18 g/m*3 18.1 C 0 km/h
452 10-06-2011 18:35:02 18.2 C 6.53 g/m*3 18.2 C 0 km/h
453 10-06-2011 18:47:02 18.2 C 6.53 g/m*3 18.2 C 0 km/h
454 10-06-2011 18:59:02 18.2 C 6.53 g/m*3 18.2 C 0 km/h
455 10-06-2011 19:11:02 18.2 C 6.53 g/m*3 18.2 C 0 km/h
456 10-06-2011 19:23:02 18.2 C 7.77 g/m*3 18.2 C 0 km/h
457 10-06-2011 19:35:02 18.2 C 7.77 g/m*3 18.2 C 0 km/h
458 10-06-2011 19:47:02 18.2 C 7.77 g/m*3 18.2 C 0 km/h
459 10-06-2011 19:59:02 18.2 C 7.77 g/m*3 18.2 C 0 km/h
460 10-06-2011 20:11:02 18.2 C 7.77 g/m*3 18.2 C 0 km/h
461 10-06-2011 20:23:02 18.2 C 7.77 g/m*3 18.2 C 0 km/h
462 10-06-2011 20:35:02 18.2 C 7.77 g/m*3 18.2 C 0 km/h
463 10-06-2011 20:47:01 18.2 C 7.77 g/m*3 18.2 C 0 km/h
464 10-06-2011 20:59:01 18.2 C 7.77 g/m*3 18.2 C 0 km/h
465 10-06-2011 21:11:01 18.2 C 7.77 g/m*3 18.2 C 0 km/h
466 10-06-2011 21:23:01 18.2 C 7.77 g/m*3 18.2 C 0 km/h
467 10-06-2011 21:35:01 14.3 C 8.72 g/m*3 14.3 C 0 km/h
468 10-06-2011 21:47:01 14.3 C 8.72 g/m*3 14.3 C 0 km/h
469 10-06-2011 21:59:01 14.3 C 8.72 g/m*3 14.3 C 0 km/h
470 10-06-2011 22:11:02 14.4 C 8.9 g/m*3 14.4 C 0 km/h
471 10-06-2011 22:24:03 14.4 C 8.9 g/m*3 14.4 C 0 km/h
472 10-06-2011 22:36:03 14.4 C 8.9 g/m*3 14.4 C 0 km/h
473 10-06-2011 22:48:03 14.4 C 8.9 g/m*3 14.4 C 0 km/h
474 10-06-2011 23:00:03 14.4 C 8.9 g/m*3 14.4 C 0 km/h
475 10-06-2011 23:12:03 14.4 C 8.9 g/m*3 14.4 C 0 km/h
Sensor: Nr:Datum:Temp:Abs-Feuchte:Windchill:Wind:
Aussen-T/F 476 10-06-2011 23:24:03 14.4 C 8.9 g/m*3 14.4 C 0 km/h
477 10-06-2011 23:36:03 15.1 C 7.87 g/m*3 15.1 C 0 km/h
478 10-06-2011 23:48:03 15.1 C 7.87 g/m*3 15.1 C 0 km/h
479 11-06-2011 00:00:03 15.1 C 7.87 g/m*3 15.1 C 0 km/h
480 11-06-2011 00:12:03 12.6 C 9.07 g/m*3 12.6 C 0 km/h
481 11-06-2011 00:24:03 12.6 C 9.07 g/m*3 12.6 C 0 km/h
482 11-06-2011 00:36:03 12.6 C 9.07 g/m*3 12.6 C 0 km/h
483 11-06-2011 00:48:03 12.6 C 9.07 g/m*3 12.6 C 0 km/h
484 11-06-2011 01:00:03 12.6 C 9.07 g/m*3 12.6 C 0 km/h
485 11-06-2011 01:12:03 12.6 C 9.07 g/m*3 12.6 C 0 km/h
486 11-06-2011 01:24:03 12.6 C 9.07 g/m*3 12.6 C 0 km/h
487 11-06-2011 01:36:04 12.6 C 9.07 g/m*3 12.6 C 0 km/h
488 11-06-2011 01:48:04 12.6 C 9.07 g/m*3 12.6 C 0 km/h
489 11-06-2011 02:00:04 12.6 C 9.07 g/m*3 12.6 C 0 km/h
490 11-06-2011 02:12:04 12.6 C 9.07 g/m*3 12.6 C 0 km/h
491 11-06-2011 02:24:04 12.6 C 9.07 g/m*3 12.6 C 0 km/h
492 11-06-2011 02:36:04 12.6 C 9.07 g/m*3 12.6 C 0 km/h
493 11-06-2011 02:48:04 12.6 C 9.07 g/m*3 12.6 C 0 km/h
494 11-06-2011 03:00:04 12.6 C 9.07 g/m*3 12.6 C 0 km/h
495 11-06-2011 03:12:04 12.6 C 9.07 g/m*3 12.6 C 0 km/h
496 11-06-2011 03:24:04 12.6 C 9.07 g/m*3 12.6 C 0 km/h
497 11-06-2011 03:36:04 12.6 C 9.07 g/m*3 12.6 C 0 km/h
498 11-06-2011 03:48:04 12.6 C 9.07 g/m*3 12.6 C 0 km/h
499 11-06-2011 04:00:04 12.6 C 9.07 g/m*3 12.6 C 0 km/h
500 11-06-2011 04:12:04 12.6 C 9.07 g/m*3 12.6 C 0 km/h
Sensor: Nr:Datum:Temp:Abs-Feuchte:Windchill:Wind:
Aussen-T/F 501 11-06-2011 04:24:04 12.6 C 9.07 g/m*3 12.6 C 0 km/h
502 11-06-2011 04:36:04 12.6 C 9.07 g/m*3 12.6 C 0 km/h
503 11-06-2011 04:48:04 12.6 C 9.07 g/m*3 12.6 C 0 km/h
504 11-06-2011 05:00:04 12.6 C 9.07 g/m*3 12.6 C 0 km/h
505 11-06-2011 05:12:04 12.6 C 9.07 g/m*3 12.6 C 0 km/h
506 11-06-2011 05:24:04 12.6 C 9.07 g/m*3 12.6 C 0 km/h
507 11-06-2011 05:36:04 12.6 C 9.07 g/m*3 12.6 C 0 km/h
508 11-06-2011 05:48:05 12.6 C 9.07 g/m*3 12.6 C 0 km/h
509 11-06-2011 06:00:05 12.6 C 9.07 g/m*3 12.6 C 0 km/h
510 11-06-2011 06:12:05 12.6 C 9.07 g/m*3 12.6 C 0 km/h
511 11-06-2011 06:24:05 12.6 C 9.07 g/m*3 12.6 C 0 km/h
512 11-06-2011 06:36:05 12.6 C 9.07 g/m*3 12.6 C 0 km/h
513 11-06-2011 06:48:05 12.6 C 9.07 g/m*3 12.6 C 0 km/h
514 11-06-2011 07:00:05 12.6 C 9.07 g/m*3 12.6 C 0 km/h
515 11-06-2011 07:12:05 12.6 C 9.07 g/m*3 12.6 C 0 km/h
516 11-06-2011 07:24:05 10 C 8.36 g/m*3 10 C 0 km/h
517 11-06-2011 07:36:05 10.5 C 8.73 g/m*3 10.5 C 0 km/h
518 11-06-2011 07:48:02 11.2 C 9.02 g/m*3 11.2 C 0 km/h
519 11-06-2011 08:00:02 10.8 C 8.8 g/m*3 10.8 C 0 km/h
520 11-06-2011 08:12:02 10.8 C 8.8 g/m*3 10.8 C 0 km/h
521 11-06-2011 08:24:02 12.2 C 9.39 g/m*3 12.2 C 0 km/h
522 11-06-2011 08:36:01 11.9 C 8.9 g/m*3 11.9 C 0 km/h
523 11-06-2011 08:48:02 11.9 C 8.9 g/m*3 11.9 C 0 km/h
524 11-06-2011 09:00:02 11.9 C 8.9 g/m*3 11.9 C 0 km/h
525 11-06-2011 09:12:01 11.9 C 8.9 g/m*3 11.9 C 0 km/h
Sensor: Nr:Datum:Temp:Abs-Feuchte:Windchill:Wind:
Aussen-T/F 526 11-06-2011 09:24:02 13.4 C 7.32 g/m*3 13.4 C 0 km/h
527 11-06-2011 09:36:01 13.1 C 6.96 g/m*3 13.1 C 0 km/h
528 11-06-2011 09:48:03 13.5 C 7.49 g/m*3 13.5 C 0 km/h
529 11-06-2011 10:00:03 13.6 C 7.3 g/m*3 13.6 C 0 km/h
530 11-06-2011 10:12:02 13.6 C 7.3 g/m*3 13.6 C 0 km/h
531 11-06-2011 10:24:02 13.6 C 7.3 g/m*3 13.6 C 0 km/h
532 11-06-2011 10:36:02 13.6 C 7.3 g/m*3 13.6 C 0 km/h
533 11-06-2011 10:48:02 13.6 C 7.3 g/m*3 13.6 C 0 km/h
534 11-06-2011 11:00:02 13.6 C 7.3 g/m*3 13.6 C 0 km/h
535 11-06-2011 11:12:01 13.6 C 7.3 g/m*3 13.6 C 0 km/h
536 11-06-2011 11:24:02 13.6 C 7.3 g/m*3 13.6 C 0 km/h
537 11-06-2011 11:36:02 13.6 C 7.3 g/m*3 13.6 C 0 km/h
538 11-06-2011 11:48:01 13.6 C 7.3 g/m*3 13.6 C 0 km/h
539 11-06-2011 12:00:01 13.6 C 7.3 g/m*3 13.6 C 0 km/h
540 11-06-2011 12:12:01 13.6 C 7.3 g/m*3 13.6 C 0 km/h
541 11-06-2011 12:24:01 13.6 C 7.3 g/m*3 13.6 C 0 km/h
542 11-06-2011 12:36:02 13.6 C 7.3 g/m*3 13.6 C 0 km/h
543 11-06-2011 12:48:02 13.6 C 7.3 g/m*3 13.6 C 0 km/h
544 11-06-2011 13:00:02 17.8 C 5.01 g/m*3 17.8 C 0 km/h
545 11-06-2011 13:12:02 17.8 C 4.71 g/m*3 17.8 C 0 km/h
546 11-06-2011 13:24:01 21.4 C 5.44 g/m*3 21.4 C 0 km/h
547 11-06-2011 13:36:02 22.7 C 4.24 g/m*3 22.7 C 0 km/h
548 11-06-2011 13:48:02 20.2 C 4.9 g/m*3 20.2 C 0 km/h
549 11-06-2011 14:00:02 20.3 C 5.28 g/m*3 20.3 C 0 km/h
550 11-06-2011 14:12:02 23.7 C 5.13 g/m*3 23.7 C 0 km/h
Sensor: Nr:Datum:Temp:Abs-Feuchte:Windchill:Wind:
Aussen-T/F 551 11-06-2011 14:24:01 20.8 C 4.89 g/m*3 20.8 C 0 km/h
552 11-06-2011 14:36:02 19.8 C 4.95 g/m*3 19.8 C 0 km/h
553 11-06-2011 14:48:02 21.7 C 4.77 g/m*3 21.7 C 0 km/h
554 11-06-2011 15:00:02 25.9 C 4.84 g/m*3 25.9 C 0 km/h
555 11-06-2011 15:12:02 27.5 C 5.29 g/m*3 27.5 C 0 km/h
556 11-06-2011 15:24:02 27.6 C 5.32 g/m*3 27.6 C 0 km/h
557 11-06-2011 15:36:02 22.5 C 3.99 g/m*3 22.5 C 0 km/h
558 11-06-2011 15:48:02 27.4 C 5.26 g/m*3 27.4 C 0 km/h
559 11-06-2011 16:00:02 26.3 C 4.95 g/m*3 26.3 C 0 km/h
560 11-06-2011 16:12:02 22.7 C 4.04 g/m*3 22.7 C 0 km/h
561 11-06-2011 16:24:02 25.5 C 4.73 g/m*3 25.5 C 0 km/h
562 11-06-2011 16:36:01 25.5 C 4.73 g/m*3 25.5 C 0 km/h
563 11-06-2011 16:48:02 25.5 C 4.73 g/m*3 25.5 C 0 km/h
564 11-06-2011 17:00:02 25.5 C 4.73 g/m*3 25.5 C 0 km/h
565 11-06-2011 17:12:01 25.5 C 4.73 g/m*3 25.5 C 0 km/h
566 11-06-2011 17:24:01 25.5 C 4.73 g/m*3 25.5 C 0 km/h
567 11-06-2011 17:36:01 25.5 C 4.73 g/m*3 25.5 C 0 km/h
568 11-06-2011 17:48:02 25.5 C 4.73 g/m*3 25.5 C 0 km/h
569 11-06-2011 18:00:03 25.5 C 4.73 g/m*3 25.5 C 0 km/h
570 11-06-2011 18:12:02 25.5 C 4.73 g/m*3 25.5 C 0 km/h
571 11-06-2011 18:24:02 25.5 C 4.73 g/m*3 25.5 C 0 km/h
572 11-06-2011 18:36:02 23.6 C 4.89 g/m*3 23.6 C 0 km/h
573 11-06-2011 18:48:01 23.6 C 4.89 g/m*3 23.6 C 0 km/h
574 11-06-2011 19:00:01 22.1 C 5.27 g/m*3 22.1 C 0 km/h
575 11-06-2011 19:12:02 18.9 C 5.51 g/m*3 18.9 C 0 km/h
Sensor: Nr:Datum:Temp:Abs-Feuchte:Windchill:Wind:
Aussen-T/F 576 11-06-2011 19:24:01 18.9 C 5.51 g/m*3 18.9 C 0 km/h
577 11-06-2011 19:36:02 18 C 7.22 g/m*3 18 C 0 km/h
578 11-06-2011 19:48:01 17.6 C 7.8 g/m*3 17.6 C 0 km/h
579 11-06-2011 20:00:01 16.8 C 7.72 g/m*3 16.8 C 0 km/h
580 11-06-2011 20:12:02 16.6 C 7.63 g/m*3 16.6 C 0 km/h
581 11-06-2011 20:24:01 16.2 C 7.86 g/m*3 16.2 C 0 km/h
582 11-06-2011 20:36:02 15.7 C 8.16 g/m*3 15.7 C 0 km/h
583 11-06-2011 20:48:01 15.4 C 7.88 g/m*3 15.4 C 0 km/h
584 11-06-2011 21:00:01 15 C 7.82 g/m*3 15 C 0 km/h
585 11-06-2011 21:12:02 15.8 C 6.6 g/m*3 15.8 C 0 km/h
586 11-06-2011 21:24:01 15.7 C 6.69 g/m*3 15.7 C 0 km/h
587 11-06-2011 21:36:01 15.2 C 6.88 g/m*3 15.2 C 0 km/h
588 11-06-2011 21:48:01 14.9 C 6.88 g/m*3 14.9 C 0 km/h
589 11-06-2011 22:00:01 14.5 C 6.84 g/m*3 14.5 C 0 km/h
590 11-06-2011 22:12:02 14.1 C 7.28 g/m*3 14.1 C 0 km/h
591 11-06-2011 22:24:02 13.6 C 7.41 g/m*3 13.6 C 0 km/h
592 11-06-2011 22:36:01 12.8 C 7.39 g/m*3 12.8 C 0 km/h
593 11-06-2011 22:49:03 12.4 C 7.54 g/m*3 12.4 C 0 km/h
594 11-06-2011 23:01:03 12.4 C 7.43 g/m*3 12.4 C 0 km/h
595 11-06-2011 23:13:03 12.2 C 7.34 g/m*3 12.2 C 0 km/h
596 11-06-2011 23:25:03 12.1 C 7.4 g/m*3 12.1 C 0 km/h
597 11-06-2011 23:37:04 11.7 C 7.64 g/m*3 11.7 C 0 km/h
598 11-06-2011 23:49:04 11.1 C 7.45 g/m*3 11.1 C 0 km/h

Legende:
   Min
   Max


Maximal/Minimal-Werte vom 07.06.2011 - 11.06.2011

Sensor Min Max Avg
Temp
(Aussen-T/F)
8.6 °C
09-06-2011  06:45:02
32.1 °C
07-06-2011  16:55:02
16.22 °C
Abs-Feuchte
(Aussen-T/F)
3.99 g/m*3
11-06-2011  15:36:02
12.04 g/m*3
07-06-2011  02:19:03
8.44 g/m*3
Windchill
(Aussen-T/F)
8.6 C
09-06-2011  06:45:02
32.1 C
07-06-2011  16:55:02
16.19 C

Die Daten stammen von einer Davis Vantage Pro 2 Wetter-Station und werden unter Linux mit der Software wview2wettercgi und aufbereitet. Alle Angaben erfolgen ohne Gewähr für ihre Vollständigkeit oder Richtigkeit.
Kontakt: Rainer Krienke krienke@uni-koblenz.de . Meine Webseiten an der Uni Koblenz oder privat.
Version: $Revision: 0.78 $